This is the latest recevied weather packets stored in our database for station/object OK3FM-14. If no packets are shown the sender has not sent any weather packets the latest 10 day(s).
| Time | Temp. | Humidity | Pressure | Rain* | Wind** | Luminosity | Snow |
|---|---|---|---|---|---|---|---|
| 1787592431 | 17.78° C | 43% | 1020.9 hPa | - | - | - | - |
| 1787591830 | 18.33° C | 42% | 1020.8 hPa | - | - | - | - |
| 1787591231 | 18.33° C | 43% | 1020.8 hPa | - | - | - | - |
| 1787590631 | 18.89° C | 43% | 1020.9 hPa | - | - | - | - |
| 1787590031 | 18.89° C | 43% | 1021.1 hPa | - | - | - | - |
| 1787589431 | 18.89° C | 42% | 1021.2 hPa | - | - | - | - |
| 1787588831 | 19.44° C | 42% | 1021.2 hPa | - | - | - | - |
| 1787588231 | 19.44° C | 42% | 1021.5 hPa | - | - | - | - |
| 1787587631 | 19.44° C | 42% | 1021.6 hPa | - | - | - | - |
| 1787587031 | 19.44° C | 42% | 1021.7 hPa | - | - | - | - |
| 1787586431 | 19.44° C | 41% | 1021.8 hPa | - | - | - | - |
| 1787585831 | 20° C | 42% | 1021.8 hPa | - | - | - | - |
| 1787585231 | 20° C | 41% | 1021.9 hPa | - | - | - | - |
| 1787584631 | 20° C | 40% | 1022.2 hPa | - | - | - | - |
| 1787584031 | 20° C | 40% | 1022.1 hPa | - | - | - | - |
| 1787583431 | 20.56° C | 41% | 1022.2 hPa | - | - | - | - |
| 1787582831 | 20° C | 40% | 1022.5 hPa | - | - | - | - |
| 1787582231 | 20° C | 40% | 1022.5 hPa | - | - | - | - |
| 1787581631 | 20° C | 41% | 1022.3 hPa | - | - | - | - |
| 1787581031 | 20° C | 40% | 1022.5 hPa | - | - | - | - |
| 1787580431 | 20° C | 38% | 1022.5 hPa | - | - | - | - |
| 1787579831 | 20° C | 39% | 1022.6 hPa | - | - | - | - |
| 1787579231 | 20° C | 40% | 1022.7 hPa | - | - | - | - |
| 1787578631 | 20° C | 39% | 1022.7 hPa | - | - | - | - |
| 1787578031 | 20° C | 37% | 1022.7 hPa | - | - | - | - |
* Rain since midnight (hover to see other rain measurements)
** Current wind speed in m/s (hover to see current wind gust speed)